This is the latest recevied weather packets stored in our database for station/object SR2CPA-13. If no packets are shown the sender has not sent any weather packets the latest 10 day(s).
| Time | Temp. | Humidity | Pressure | Rain* | Wind** | Luminosity | Snow |
|---|---|---|---|---|---|---|---|
| 1777810694 | 27.78° C | 27% | 0 hPa | 0 mm | - | - | - |
| 1777810073 | 27.22° C | 29% | 0 hPa | 0 mm | - | - | - |
| 1777809473 | 27.22° C | 27% | 0 hPa | 0 mm | - | - | - |
| 1777808853 | 27.22° C | 28% | 0 hPa | 0 mm | - | - | - |
| 1777808253 | 27.22° C | 30% | 0 hPa | 0 mm | - | - | - |
| 1777807634 | 27.22° C | 30% | 0 hPa | 0 mm | - | - | - |
| 1777807033 | 27.22° C | 30% | 0 hPa | 0 mm | - | - | - |
| 1777806414 | 26.67° C | 30% | 0 hPa | 0 mm | - | - | - |
| 1777805813 | 27.22° C | 32% | 0 hPa | 0 mm | - | - | - |
| 1777805193 | 26.67° C | 30% | 0 hPa | 0 mm | - | - | - |
| 1777804593 | 26.67° C | 32% | 0 hPa | 0 mm | - | - | - |
| 1777803973 | 26.11° C | 29% | 0 hPa | 0 mm | - | - | - |
| 1777803373 | 25.56° C | 34% | 0 hPa | 0 mm | - | - | - |
| 1777802773 | 25.56° C | 31% | 0 hPa | 0 mm | - | - | - |
| 1777802153 | 25.56° C | 30% | 0 hPa | 0 mm | - | - | - |
| 1777801533 | 25.56° C | 32% | 0 hPa | 0 mm | - | - | - |
| 1777800933 | 25° C | 34% | 0 hPa | 0 mm | - | - | - |
| 1777800313 | 24.44° C | 35% | 0 hPa | 0 mm | - | - | - |
| 1777799713 | 24.44° C | 37% | 0 hPa | 0 mm | - | - | - |
| 1777799093 | 23.89° C | 37% | 0 hPa | 0 mm | - | - | - |
| 1777798493 | 23.89° C | 39% | 0 hPa | 0 mm | - | - | - |
| 1777797873 | 23.33° C | 40% | 0 hPa | 0 mm | - | - | - |
| 1777797273 | 22.78° C | 42% | 0 hPa | 0 mm | - | - | - |
| 1777796653 | 22.78° C | 44% | 0 hPa | 0 mm | - | - | - |
| 1777796053 | 21.67° C | 44% | 0 hPa | 0 mm | - | - | - |
* Rain latest hour (hover to see other rain measurements)
** Current wind speed in m/s (hover to see current wind gust speed)